Location: Brachstadt
(48.6975°N, 10.6755°E)
Time: 06:18:32
(UTC+00:00)

Cosmos 1674 - Pass Details

Date: 18 September 2020
Orbit: 494 x 517 km, 82.5° (Epoch: 22 October)

Event Time Altitude Azimuth Distance (km) Brightness Sun altitude
Rises 19:02:37 0° 354° (N) 2,653 6.7 -16.8°
Reaches altitude 10° 19:04:48 10° 359° (N) 1,761 5.7 -17.1°
Maximum altitude 19:08:36 54° 77° (ENE) 640 2.8 -17.7°
Enters shadow 19:09:25 44° 122° (ESE) 730 2.9 -17.8°
